User: anonymous   Login
Location: *
(2.5500°S, 65.9667°W)
Time: 16:00:08
(UTC+00:00)
Language:

GPS 2-18 Rocket1 - Orbit

View from above orbital plane
View from above orbital plane
View from above satellite
View from above satellite

Ground track
Ground track

The orbit data is extracted from the following two-line orbital elements,

1 22447U 93007B   22018.41808069  .00008322  00000-0  25920-3 0  9993
2 22447  20.8544  61.2339 0037627 172.0052 188.0997 15.29062613589470
Epoch (UTC): 18 January 2022 10:02:02
Eccentricity: 0.0037627
inclination: 20.8544°
perigee height: 453 km
apogee height: 504 km
right ascension of ascending node: 61.2339°
argument of perigee: 172.0052°
revolutions per day: 15.29062613
mean anomaly at epoch: 188.0997°
orbit number at epoch: 58947

The dashed part of the orbit path shows where the satellite is in the earth's shadow,  

DLR